Weather reports worldwide

Advertisment
Manschnow, Germany (10396): temperature & dewpoint: 20.03.2019 08:00:00 - 26.03.2019 08:00:00 (CET)Manschnow, Germany (10396): temperature 5cm & temperature -5cm: 20.03.2019 08:00:00 - 26.03.2019 08:00:00 (CET)Manschnow, Germany (10396): temperature -20cm & temperature -100cm: 20.03.2019 08:00:00 - 26.03.2019 08:00:00 (CET)Manschnow, Germany (10396): wind speed & gusts: 20.03.2019 08:00:00 - 26.03.2019 08:00:00 (CET)Manschnow, Germany (10396): wind direction: 20.03.2019 08:00:00 - 26.03.2019 08:00:00 (CET)Manschnow, Germany (10396): reduced air pressure: 20.03.2019 08:00:00 - 26.03.2019 08:00:00 (CET)Manschnow, Germany (10396): visibility: 20.03.2019 08:00:00 - 26.03.2019 08:00:00 (CET)Manschnow, Germany (10396): sunshine duration: 20.03.2019 08:00:00 - 26.03.2019 08:00:00 (CET)Manschnow, Germany (10396): precipitation: 20.03.2019 08:00:00 - 26.03.2019 08:00:00 (CET)
Date & Time tt [°C] td [°C] tt 5cm [°C] tt -5cm [°C] tt -20cm [°C] tt -100cm [°C] ff [km/h] ff [kn] fx [km/h] fx [kn] dd ppp [hPa] vv [km] sd [min] rr [mm]
26.03.2019 08:00:00 2,8 1,5 2,5 1,9 4,8 7,5 31 17 46 25 WNW 1022,8 11 25 0,0
26.03.2019 07:00:00 1,2 0,4 0,6 1,7 4,9 7,5 16 9 23 12 WSW 1022,3 6 33 0,0
26.03.2019 06:00:00 0,9 0,1 -0,2 1,8 5,1 7,5 12 6 18 10 WSW 1022,4 8 0 0,0
26.03.2019 05:00:00 0,0 -0,7 -1,5 1,9 5,4 7,5 9 5 14 8 WSW 1022,5 9 0 0,0
26.03.2019 04:00:00 -1,0 -1,7 -2,6 2,2 5,6 7,5 8 5 13 7 SW 1022,6 9 0 0,0
26.03.2019 03:00:00 -1,1 -1,7 -2,6 2,4 5,9 7,4 7 4 11 6 SW 1022,7 8 0 0,0
26.03.2019 02:00:00 -0,8 -1,6 -2,4 2,6 6,2 7,4 6 3 9 5 SW 1022,8 10 0 0,0
26.03.2019 01:00:00 -0,1 -1,0 -2,2 2,7 6,6 7,4 7 4 13 7 WNW 1022,7 14 0 0,0
26.03.2019 00:00:00 0,1 -1,0 -1,5 3,4 6,9 7,4 8 4 14 8 WNW 1021,8 15 0 0,0
25.03.2019 23:00:00 2,5 0,5 1,0 4,2 7,2 7,4 10 6 14 8 NW 1021,3 35 0 0,0
25.03.2019 22:00:00 3,8 1,0 2,3 5,1 7,5 7,4 8 4 27 15 NNW 1020,4 37 0 0,0
25.03.2019 21:00:00 5,2 2,0 3,7 6,2 7,7 7,4 14 7 27 15 N 1019,3 44 0 0,0
25.03.2019 20:00:00 5,0 2,7 3,9 6,6 7,9 7,4 10 6 16 9 WNW 1018,3 60 0 0,0
25.03.2019 19:00:00 4,4 2,2 3,5 6,9 8,1 7,4 9 5 16 9 WNW 1016,9 59 0 0,0
25.03.2019 18:00:00 5,1 2,7 4,1 8,4 8,1 7,4 9 5 22 12 NW 1015,9 62 18 0,0
25.03.2019 17:00:00 6,8 2,5 6,9 9,2 7,9 7,4 10 5 25 13 NW 1014,7 67 30 0,0
25.03.2019 16:00:00 6,8 2,4 7,1 10,4 7,6 7,4 13 7 39 21 NW 1014,2 62 19 0,0
25.03.2019 15:00:00 5,7 2,5 5,1 10,5 7,2 7,4 16 8 33 18 NW 1013,3 17 34 0,8
25.03.2019 14:00:00 8,1 2,2 9,4 9,5 6,9 7,4 23 12 41 22 WNW 1012,8 42 26 0,9
25.03.2019 13:00:00 7,3 2,7 8,7 8,6 6,5 7,4 19 10 37 20 W 1012,5 46 14 0,0
25.03.2019 12:00:00 5,6 2,4 6,6 7,0 6,4 7,3 22 12 36 20 W 1012,6 33 5 0,0
25.03.2019 11:00:00 3,4 2,1 4,0 5,1 6,4 7,3 16 9 30 16 W 1012,3 17 0 0,2
25.03.2019 10:00:00 0,9 0,2 0,5 4,1 6,5 7,3 14 7 28 15 WSW 1012,1 3,3 0 1,6
25.03.2019 09:00:00 2,6 1,2 2,4 4,9 6,6 7,3 19 10 37 20 WSW 1011,8 9 0 0,6
25.03.2019 08:00:00 3,8 0,1 3,6 4,8 6,7 7,3 12 6 18 10 SW 1011,5 27 0 0,0
25.03.2019 07:00:00 2,1 -0,3 1,7 4,0 6,9 7,3 11 6 18 10 SW 1012,0 32 9 0,0
25.03.2019 06:00:00 1,7 -0,5 0,5 4,1 7,1 7,3 14 7 21 11 SW 1012,8 39 0 0,0
25.03.2019 05:00:00 2,4 0,1 1,3 4,5 7,3 7,3 12 7 16 9 SW 1013,5 31 0 0,0
25.03.2019 04:00:00 2,3 -0,1 1,7 4,6 7,5 7,3 10 5 15 8 SW 1014,6 35 0 0,0
25.03.2019 03:00:00 2,0 -0,3 0,8 4,6 7,8 7,3 9 5 15 8 SW 1015,6 30 0 0,0
25.03.2019 02:00:00 0,2 -1,6 -1,0 4,5 8,2 7,2 8 4 10 6 S 1016,8 33 0 0,0
25.03.2019 01:00:00 0,4 -1,4 -1,3 4,8 8,6 7,2 7 4 9 5 SSW 1017,7 37 0 0,0
25.03.2019 00:00:00 0,4 -1,2 -1,7 5,5 9,0 7,2 3 2 5 3 SSW 1018,5 28 0 0,0
24.03.2019 23:00:00 1,3 -0,6 -1,3 6,3 9,5 7,2 4 2 7 4 W 1019,1 29 0 0,0
24.03.2019 22:00:00 1,9 -0,3 -0,5 7,2 9,9 7,2 4 2 10 5 SW 1019,5 33 0 0,0
24.03.2019 21:00:00 4,1 0,2 0,7 8,3 10,3 7,2 3 2 8 5 W 1020,0 39 0 0,0
24.03.2019 20:00:00 6,7 0,3 3,9 9,4 10,6 7,2 6 3 12 6 N 1020,5 42 0 0,0
24.03.2019 19:00:00 7,6 1,2 5,1 11,0 10,9 7,2 8 4 11 6 NW 1020,9 41 8 0,0
24.03.2019 18:00:00 9,9 -0,1 8,7 12,4 11,0 7,2 3 2 8 4 N 1020,9 48 0 0,0
24.03.2019 17:00:00 10,4 -2,0 10,5 13,7 10,9 7,2 5 3 11 6 NNW 1021,6 63 0 0,0
24.03.2019 16:00:00 10,7 -0,6 11,3 15,3 10,6 7,1 6 3 15 8 NW 1022,2 59 10 0,0
24.03.2019 15:00:00 11,4 1,0 15,9 16,4 10,0 7,1 9 5 17 9 W 1022,8 27 40 0,0
24.03.2019 14:00:00 10,8 0,8 14,8 16,5 9,4 7,1 8 5 22 12 NW 1023,8 33 42 0,0
24.03.2019 13:00:00 10,8 1,5 17,1 14,9 8,7 7,1 6 4 15 8 NW 1024,8 30 37 0,0
24.03.2019 12:00:00 10,1 1,2 15,2 14,6 8,0 7,1 6 3 14 8 W 1025,8 25 60 0,0
24.03.2019 11:00:00 9,4 2,9 13,6 11,9 7,5 7,1 3 2 10 5 S 1026,3 23 59 0,0
24.03.2019 10:00:00 7,3 2,6 11,2 9,6 7,2 7,1 5 3 12 7 NE 1027,4 20 23 0,0
24.03.2019 09:00:00 6,8 3,1 9,2 7,5 7,1 7,1 4 2 11 6 NE 1027,6 22 19 0,0
24.03.2019 08:00:00 4,7 3,0 5,1 5,7 7,2 7,1 5 3 8 4 NW 1028,0 8 33 0,0
24.03.2019 07:00:00 1,6 0,8 0,0 4,1 7,5 7,0 4 2 6 3 WNW 1028,2 7 6 0,0
24.03.2019 06:00:00 0,7 0,0 -1,3 4,4 7,8 7,0 3 2 5 3 SSW 1028,3 10 0 0,0
24.03.2019 05:00:00 1,6 0,7 -0,3 4,8 8,2 7,0 6 3 9 5 WNW 1028,4 10 0 0,0
24.03.2019 04:00:00 2,6 1,1 -0,5 5,5 8,5 7,0 4 2 9 5 WNW 1028,6 10 0 0,0
24.03.2019 03:00:00 2,6 1,4 1,1 5,9 8,8 7,0 8 5 10 5 WNW 1028,7 7 0 0,0
24.03.2019 02:00:00 3,7 2,6 1,0 6,3 9,2 7,0 6 4 9 5 WNW 1029,0 6 0 0,0
24.03.2019 01:00:00 3,0 1,7 0,7 7,0 9,6 7,0 3 2 7 4 W 1028,8 6 0 0,0
24.03.2019 00:00:00 5,0 3,3 1,3 8,0 10,0 7,0 4 2 12 6 WNW 1028,6 9 0 0,0
23.03.2019 23:00:00 7,2 4,6 5,3 9,1 10,3 7,0 6 4 20 11 NNW 1028,6 10 0 0,0
23.03.2019 22:00:00 9,3 5,8 8,0 9,9 10,6 7,0 7 4 16 9 NNW 1028,5 14 0 0,0
23.03.2019 21:00:00 10,5 6,0 8,7 11,0 10,8 7,0 7 4 17 9 NNW 1028,1 25 0 0,0
23.03.2019 20:00:00 11,3 6,3 10,4 11,5 11,1 7,0 8 4 14 7 NNW 1027,7 21 0 0,0
23.03.2019 19:00:00 10,6 6,4 9,6 12,0 11,3 7,0 6 3 17 9 NW 1027,2 13 0 0,0
23.03.2019 18:00:00 11,9 6,1 10,7 13,6 11,4 6,9 8 5 27 14 NNW 1026,6 13 0 0,0
23.03.2019 17:00:00 12,7 6,6 12,8 15,2 11,3 6,9 15 8 28 15 NNW 1026,6 9 27 0,0
23.03.2019 16:00:00 13,7 7,1 15,5 16,8 11,0 6,9 14 8 30 16 NNW 1026,0 7 60 0,0
23.03.2019 15:00:00 15,1 9,4 18,1 18,0 10,4 6,9 15 8 33 18 NNW 1025,5 6 60 0,0
23.03.2019 14:00:00 17,8 10,5 22,1 18,6 9,6 6,9 11 6 27 15 NW 1024,9 8 60 0,0
23.03.2019 13:00:00 17,8 9,0 22,4 17,9 8,7 6,9 9 5 17 9 WNW 1024,8 9 60 0,0
23.03.2019 12:00:00 16,6 9,3 21,1 16,1 7,9 6,9 4 2 13 7 WSW 1025,0 9 60 0,0
23.03.2019 11:00:00 14,1 8,6 17,5 13,8 7,2 6,9 7 4 12 6 SW 1025,3 8 60 0,0
23.03.2019 10:00:00 11,3 7,7 14,6 10,9 6,7 6,9 6 3 11 6 S 1025,6 6 60 0,0
23.03.2019 09:00:00 8,5 6,4 10,5 8,1 6,5 6,9 6 4 9 5 SSE 1025,5 5 60 0,0
23.03.2019 08:00:00 6,0 5,8 6,9 5,8 6,5 6,9 4 2 9 5 SE 1025,7 2,0 6 0,0
23.03.2019 07:00:00 4,7 4,6 4,6 4,6 6,6 6,9 3 2 8 4 SSW 1026,0 0,1 0 0,0
23.03.2019 06:00:00 3,5 3,3 1,7 4,4 6,9 6,8 5 3 16 8 SSE 1026,2 0,4 0 0,0
23.03.2019 05:00:00 4,5 4,2 3,3 4,7 7,1 6,8 12 6 18 10 SE 1026,5 1,4 0 0,0
23.03.2019 04:00:00 4,8 4,6 2,9 4,9 7,4 6,8 8 5 10 6 ESE 1026,9 1,9 0 0,0
23.03.2019 03:00:00 5,3 5,0 3,4 5,3 7,6 6,8 8 4 10 5 ESE 1027,2 1,9 0 0,0
23.03.2019 02:00:00 4,1 3,5 2,5 5,8 7,9 6,8 7 4 10 6 ESE 1027,8 0,3 0 0,0
23.03.2019 01:00:00 4,6 4,2 2,7 6,4 8,1 6,8 8 4 10 5 ESE 1028,5 0,9 0 0,0
23.03.2019 00:00:00 6,5 5,8 4,7 7,4 8,3 6,8 9 5 19 10 ESE 1029,2 3,3 0 0,0
22.03.2019 23:00:00 8,4 7,2 7,9 7,7 8,5 6,8 14 8 21 11 SSE 1029,9 4,5 0 0,0
22.03.2019 22:00:00 7,3 6,1 5,5 7,6 8,7 6,8 11 6 16 9 SE 1030,0 5 0 0,0
22.03.2019 21:00:00 8,8 7,0 7,1 8,8 8,8 6,8 12 7 19 10 SE 1030,6 6 0 0,0
22.03.2019 20:00:00 9,3 7,5 7,9 9,5 8,9 6,8 8 5 10 6 SE 1031,0 7 0 0,0
22.03.2019 19:00:00 9,8 8,2 9,4 10,1 9,0 6,8 5 3 8 4 SE 1031,2 6 0 0,0
22.03.2019 18:00:00 10,8 8,1 10,4 10,6 8,9 6,8 4 2 8 5 SE 1031,5 8 0 0,0
22.03.2019 17:00:00 10,9 7,9 11,1 11,1 8,8 6,7 5 3 11 6 SSE 1031,5 9 0 0,0
22.03.2019 16:00:00 10,7 7,7 11,4 11,4 8,6 6,7 7 4 15 8 SE 1032,0 8 0 0,0
22.03.2019 15:00:00 10,5 7,4 11,4 11,5 8,4 6,7 5 3 13 7 SSE 1032,5 9 0 0,0
22.03.2019 14:00:00 10,5 7,5 11,8 11,3 8,2 6,7 8 4 15 8 SSW 1033,0 8 0 0,0
22.03.2019 13:00:00 10,5 7,4 12,0 11,1 7,9 6,7 4 2 13 7 S 1033,4 7 0 0,0
22.03.2019 12:00:00 10,4 7,4 11,7 10,3 7,7 6,7 4 2 8 4 S 1034,0 5 0 0,0
22.03.2019 11:00:00 10,1 7,2 11,0 9,8 7,5 6,7 4 2 10 5 E 1034,2 5 0 0,0
22.03.2019 10:00:00 10,0 8,1 10,6 8,9 7,3 6,7 5 3 8 4 SSW 1034,3 7 0 0,0
22.03.2019 09:00:00 9,4 7,9 9,6 8,2 7,3 6,7 3 2 6 3 SSW 1034,0 7 0 0,0
22.03.2019 08:00:00 8,7 7,9 8,6 7,7 7,2 6,7 3 1 6 4 SW 1034,0 5 0 0,0
22.03.2019 07:00:00 8,4 7,2 8,0 7,4 7,3 6,7 3 2 6 4 N 1033,8 6 0 0,0
22.03.2019 06:00:00 7,8 7,1 7,4 7,3 7,3 6,7 0 0 4 2 N 1033,3 3,9 0 0,0
22.03.2019 05:00:00 7,9 7,0 7,5 7,3 7,3 6,7 1 1 9 5 SSW 1032,9 4,7 0 0,0
22.03.2019 04:00:00 7,8 6,9 7,2 7,3 7,3 6,7 3 2 7 4 WSW 1032,3 3,9 0 0,0
22.03.2019 03:00:00 7,6 6,9 7,1 7,3 7,4 6,6 4 2 6 3 SW 1032,3 3,6 0 0,0
22.03.2019 02:00:00 7,6 6,7 7,2 7,3 7,4 6,6 3 2 7 4 SSW 1032,6 3,9 0 0,0
22.03.2019 01:00:00 7,6 6,7 7,2 7,2 7,5 6,6 3 2 6 3 W 1032,8 4,0 0 0,0
22.03.2019 00:00:00 7,4 6,5 6,9 6,9 7,6 6,6 3 1 8 4 WSW 1033,0 4,5 0 0,0
21.03.2019 23:00:00 7,4 6,2 6,0 7,0 7,8 6,6 4 2 11 6 SW 1032,9 4,9 0 0,0
21.03.2019 22:00:00 7,2 6,1 3,3 6,8 8,0 6,6 7 4 9 5 WSW 1032,6 6 0 0,0
21.03.2019 21:00:00 7,6 6,3 4,7 7,7 8,2 6,6 8 4 11 6 SW 1032,6 6 0 0,0
21.03.2019 20:00:00 8,4 6,6 5,6 8,4 8,3 6,6 9 5 13 7 SW 1032,6 7 0 0,0
21.03.2019 19:00:00 9,9 7,3 8,2 9,3 8,4 6,6 8 4 19 10 WSW 1032,5 8 0 0,0
21.03.2019 18:00:00 11,4 7,3 10,8 10,1 8,3 6,6 12 6 20 11 W 1032,4 11 0 0,0
21.03.2019 17:00:00 11,6 7,4 11,5 10,3 8,3 6,6 12 6 22 12 WSW 1032,3 13 0 0,0
21.03.2019 16:00:00 11,7 7,3 11,8 10,5 8,1 6,6 12 7 23 12 WSW 1032,7 13 0 0,0
21.03.2019 15:00:00 11,7 7,2 12,0 10,5 8,0 6,6 16 9 26 14 W 1033,0 13 0 0,0
21.03.2019 14:00:00 11,4 7,0 11,5 10,4 7,8 6,6 16 8 26 14 WSW 1033,5 12 0 0,0
21.03.2019 13:00:00 11,4 7,0 11,7 10,3 7,7 6,6 18 10 29 15 W 1033,9 15 0 0,0
21.03.2019 12:00:00 11,6 - - 10,3 7,5 6,6 15 8 - - W - - - 0,0
21.03.2019 11:00:00 11,3 - - 9,8 7,2 6,6 13 7 - - W - - - 0,0
21.03.2019 10:00:00 10,8 7,0 11,7 9,2 7,0 6,6 11 6 18 10 W 1034,4 10 0 0,0
21.03.2019 09:00:00 9,9 6,8 9,9 8,4 6,9 6,6 11 6 17 9 WSW 1034,2 8 0 0,0
21.03.2019 08:00:00 9,3 6,8 9,2 7,8 6,8 6,6 10 6 14 8 WSW 1033,7 7 0 0,0
21.03.2019 07:00:00 8,9 6,8 8,3 7,2 6,8 6,6 8 4 15 8 WSW 1033,2 6 0 0,0
21.03.2019 06:00:00 9,0 6,7 8,2 7,2 6,8 6,6 9 5 14 8 W 1033,2 7 0 0,0
21.03.2019 05:00:00 8,9 6,7 8,2 7,2 6,9 6,6 9 5 18 10 W 1033,0 8 0 0,0
21.03.2019 04:00:00 8,9 6,6 8,2 7,2 6,9 6,6 11 6 17 9 W 1032,7 9 0 0,0
21.03.2019 03:00:00 9,2 6,3 8,5 7,2 6,9 6,6 10 5 18 10 W 1033,0 11 0 0,0
21.03.2019 02:00:00 9,5 5,9 8,7 7,2 6,9 6,6 11 6 18 10 W 1033,2 15 0 0,0
21.03.2019 01:00:00 9,0 5,7 7,9 7,2 7,0 6,6 7 4 19 10 W 1033,1 17 0 0,0
21.03.2019 00:00:00 9,4 5,1 8,5 7,2 7,0 6,6 11 6 14 8 W 1033,0 21 0 0,0
20.03.2019 23:00:00 9,5 3,9 8,7 7,3 7,1 6,6 10 5 14 8 WSW 1033,1 23 0 0,0
20.03.2019 22:00:00 9,7 3,6 8,6 7,4 7,2 6,6 8 4 21 11 WSW 1032,6 23 0 0,0
20.03.2019 21:00:00 10,1 3,2 9,0 7,6 7,3 6,6 12 7 18 10 WSW 1032,3 27 0 0,0
20.03.2019 20:00:00 9,6 3,7 8,6 7,8 7,5 6,6 12 7 16 8 SW 1032,1 27 0 0,0
20.03.2019 19:00:00 10,0 3,4 8,7 8,3 7,6 6,6 12 6 21 11 SW 1031,8 22 0 0,0
20.03.2019 18:00:00 11,2 2,4 10,2 9,1 7,6 6,6 13 7 29 15 WSW 1031,9 26 4 0,0
20.03.2019 17:00:00 11,6 2,3 11,1 10,4 7,5 6,6 18 10 31 17 WSW 1031,5 35 32 0,0
20.03.2019 16:00:00 12,4 2,1 13,9 11,5 7,2 6,6 21 12 32 17 WSW 1031,9 25 27 0,0
20.03.2019 15:00:00 11,9 2,1 12,9 12,0 6,8 6,6 19 10 33 18 W 1032,0 44 43 0,0
20.03.2019 14:00:00 11,5 1,9 13,6 12,3 6,2 6,6 16 9 31 17 SW 1032,5 44 57 0,0
20.03.2019 13:00:00 11,1 2,2 13,8 12,4 5,4 6,6 17 9 29 16 WSW 1033,0 24 60 0,0
20.03.2019 12:00:00 9,8 1,2 12,8 11,2 4,6 6,6 14 7 27 14 SW 1033,4 22 60 0,0
20.03.2019 11:00:00 8,6 1,4 11,7 8,9 3,9 6,6 14 7 24 13 WSW 1033,6 25 60 0,0
20.03.2019 10:00:00 6,3 0,6 9,1 5,4 3,5 6,6 13 7 17 9 WSW 1033,5 29 60 0,0
20.03.2019 09:00:00 3,5 0,5 5,2 0,9 3,6 6,6 9 5 13 7 SSW 1033,3 16 60 0,0
20.03.2019 08:00:00 0,9 -1,5 0,5 0,9 3,7 6,6 8 4 11 6 SSW 1033,1 20 60 0,0

tt = temperature
td = dewpoint
tt 5cm = temperature 5cm
tt -5cm = temperature -5cm
tt -20cm = temperature -20cm
tt -100cm = temperature -100cm
ff = wind speed
fx = gusts
dd = wind direction
ppp = reduced air pressure
vv = visibility
sd = sunshine duration
rr = precipitation

Next stations